Tracking 23732 objects as of 28-Sep-2021
HD Live streaming from Space Station
objects crossing your sky now

DMSP 5D-2 F13 DEB

Track DMSP 5D-2 F13 DEB now!
10-day predictions


NORAD ID: 40438
Int'l Code: 1995-015AQ
Perigee: 815.9 km
Apogee: 861.2 km
Inclination: 98.8 °
Period: 101.5 minutes
Semi major axis: 7209 km
RCS: Unknown
Launch date: March 24, 1995
Source: United States (US)
Launch site: AIR FORCE WESTERN TEST RANGE (AFWTR)

Note: This is SATELLITE DEBRIS
aabbcc
Your satellite tracking list
Your tracking list is empty




NASA's NSSDC Master Catalog

Two Line Element Set (TLE):
1 40438U 95015AQ  21269.24601052  .00002618  00000-0  12881-2 0  9998
2 40438  98.8066 254.8608 0031407 137.7781 222.5820 14.18207201339091
Source of the keplerian elements: AFSPC